This demonstration page uses our WeatherBlox Daily Observations layout. Learn more.

Left ArrowRight Arrow

Hourly Observations for October 16, 2015

Temp ( °F °C ) Dew Point ( °F °C ) Humidity (%) Winds ( mph kmh ) Pressure ( in mb ) Visibility ( mi km ) Precip ( " mm )
2:53 am 02:53 Clear 63 17.2 48 8.9 58 58 Calm 29.90 1013 10 16 0.00 0.00
3:53 am 03:53 Clear 61 16.1 46 7.8 58 58 Calm 29.91 1013 10 16 0.00 0.00
4:53 am 04:53 Clear 61 16.1 48 8.9 63 63 Calm 29.92 1013 10 16 0.00 0.00
5:53 am 05:53 Clear 60 15.6 46 7.8 60 60 Calm 29.94 1014 10 16 0.00 0.00
6:53 am 06:53 Clear 60 15.6 47 8.3 62 62 N 3 6 29.95 1014 10 16 0.00 0.00
7:53 am 07:53 Sunny 59 15 47 8.3 64 64 Calm 29.95 1014 10 16 0.00 0.00
8:53 am 08:53 Sunny 66 18.9 48 8.9 52 52 NNW 3 6 29.95 1014 10 16 0.00 0.00
9:53 am 09:53 Sunny 73 22.8 48 8.9 41 41 Calm 29.93 1014 10 16 0.00 0.00
10:53 am 10:53 Sunny 78 25.6 48 8.9 35 35 Calm 29.91 1013 10 16 0.00 0.00
11:53 am 11:53 Sunny 81 27.2 48 8.9 32 32 W 7 11 29.89 1012 10 16 0.00 0.00
12:53 pm 12:53 Sunny 81 27.2 47 8.3 30 30 WSW 3 6 29.88 1012 10 16 0.00 0.00
1:53 pm 13:53 Sunny 86 30 43 6.1 22 22 VRB 3 6 29.85 1011 10 16 0.00 0.00
2:53 pm 14:53 Sunny 86 30 45 7.2 24 24 SSE 9 15 29.84 1010 10 16 0.00 0.00
3:53 pm 15:53 Mostly Cloudy 86 30 46 7.8 25 25 ESE 6 9 29.82 1010 10 16 0.00 0.00
4:53 pm 16:53 Partly Cloudy 86 30 47 8.3 26 26 ENE 5 7 29.80 1009 10 16 0.00 0.00
5:53 pm 17:53 Sunny 85 29.4 47 8.3 27 27 NE 5 7 29.79 1009 10 16 0.00 0.00
6:53 pm 18:53 Clear 77 25 48 8.9 36 36 Calm 29.79 1009 10 16 0.00 0.00
7:53 pm 19:53 Clear 76 24.4 49 9.4 39 39 Calm 29.80 1009 10 16 0.00 0.00
8:53 pm 20:53 Clear 70 21.1 48 8.9 46 46 Calm 29.81 1009 10 16 0.00 0.00
9:53 pm 21:53 Partly Cloudy 69 20.6 49 9.4 49 49 Calm 29.82 1010 10 16 0.00 0.00
10:53 pm 22:53 Mostly Cloudy 67 19.4 48 8.9 51 51 N 3 6 29.82 1010 10 16 0.00 0.00
11:53 pm 23:53 Clear 64 17.8 49 9.4 58 58 WNW 3 6 29.83 1010 10 16 0.00 0.00

Powered by AerisWeather